Chongqing, China

6:35 AM CST on November 20, 2019 (GMT +0800)
Jiangbei

Weather History for ZUCK - September, 2019

Change the Weather History Date:

Sunday, September 29, 2019

  Actual Average (WUND) Record (WUND)
Temperature  
Mean Temperature 80 °F -  
Max Temperature 91 °F - - (-1)
Min Temperature 69 °F - - (-1)
Cooling Degree Days 15    
Growing Degree Days 30 (Base 50)    
Moisture  
Dew Point 62 °F    
Average Humidity 55    
Maximum Humidity 80    
Minimum Humidity 23    
Precipitation  
Precipitation 0.00 in - - ()
Sea Level Pressure  
Sea Level Pressure 29.95 in    
Wind  
Wind Speed 6 mph ()    
Max Wind Speed 11 mph    
Max Gust Speed -    
Visibility 4.8 miles    
Events      
Averages and records for this station are not official NWS values.
T = Trace of Precipitation, MM = Missing Value Source: Averaged Metar Reports

Daily Weather History Graph

Daily Weather History Graph

Search for Another Location

Airport or City:

Astronomy

Sep. 29, 2019 Rise Set
Actual Time 6:45 AM CST 6:42 PM CST
Civil Twilight 6:21 AM CST 7:06 PM CST
Nautical Twilight 5:53 AM CST 7:33 PM CST
Astronomical Twilight 5:25 AM CST 8:01 PM CST
Moon 6:58 AM CST (9/29) 7:23 PM CST (9/29)
Length of Visible Light 12h 44m
Length of Day
11h 57m
New Moon, 0% of the Moon is Illuminated
Sep 29
New Moon
Oct 6
First Quarter
Oct 14
Full
Oct 21
Last Quarter
Oct 28
New

Hourly Weather History & Observations

Time (CST) Temp. Heat Index Dew Point Humidity Pressure Visibility Wind Dir Wind Speed Gust Speed Precip Events Conditions
12:00 AM 75.2 °F - 64.4 °F 69% 30.04 in - NNE 11.2 mph - N/A   Clear
1:00 AM 73.4 °F - 64.4 °F 73% 30.04 in - North 11.2 mph - N/A   Clear
2:00 AM 74 °F - 65 °F 66% 29.96 in 4 mi WNW 2.2 mph - -   Mist
2:00 AM 73.4 °F - 64.4 °F 73% 30.04 in - NNE 8.9 mph - N/A   Clear
3:00 AM 71.6 °F - 64.4 °F 78% 30.01 in - North 6.7 mph - N/A   Clear
4:00 AM 71.6 °F - 62.6 °F 73% 30.01 in - NNE 4.5 mph - N/A   Clear
5:00 AM 71 °F - 66 °F 79% 29.93 in 3 mi Calm Calm - -   Mist
5:00 AM 69.8 °F - 62.6 °F 78% 30.01 in - North 6.7 mph - N/A   Clear
7:00 AM 69.8 °F - 62.6 °F 78% 30.01 in - NNE 6.7 mph - N/A   Clear
8:00 AM 71 °F - 66 °F 80% 29.97 in 3 mi NW 2.2 mph - -   Mist
8:00 AM 71.6 °F - 64.4 °F 78% 30.04 in - North 6.7 mph - N/A   Clear
9:00 AM 77.0 °F - 64.4 °F 65% 30.04 in - NNE 4.5 mph - N/A   Clear
10:00 AM 80.6 °F 82.3 °F 64.4 °F 58% 30.04 in - East 4.5 mph - N/A   Clear
11:00 AM 82 °F - 61 °F 39% 29.97 in 4 mi SSE 4.5 mph - -   Mist
11:00 AM 82.4 °F 83.4 °F 62.6 °F 51% 30.04 in - East 4.5 mph - N/A   Clear
12:00 PM 84.2 °F 85.0 °F 62.6 °F 48% 30.01 in - South 6.7 mph - N/A   Clear
1:00 PM 86.0 °F 87.3 °F 64.4 °F 48% 29.98 in - Variable 4.5 mph - N/A   Clear
2:00 PM 89 °F - 59 °F 27% 29.86 in 7 mi East 2.2 mph - -  
2:00 PM 87.8 °F 87.6 °F 60.8 °F 40% 29.95 in - SE 6.7 mph - N/A   Clear
3:00 PM 89.6 °F 89.5 °F 60.8 °F 38% 29.92 in - Variable 4.5 mph - N/A   Clear
4:00 PM 91.4 °F 90.7 °F 59.0 °F 34% 29.89 in - Variable 4.5 mph - N/A   Clear
5:00 PM 91 °F - 58 °F 23% 29.80 in 9 mi NNW 4.5 mph - -  
5:00 PM 89.6 °F 89.5 °F 60.8 °F 38% 29.89 in - North 4.5 mph - N/A   Clear
6:00 PM 87.8 °F 87.1 °F 59.0 °F 38% 29.89 in - NNE 6.7 mph - N/A   Clear
7:00 PM 84.2 °F 83.8 °F 59.0 °F 42% 29.89 in - North 8.9 mph - N/A   Clear
8:00 PM 83 °F - 60 °F 36% 29.82 in 4 mi WNW 2.2 mph - -   Mist
8:00 PM 82.4 °F 82.5 °F 59.0 °F 45% 29.89 in - NNE 8.9 mph - N/A   Clear
9:00 PM 80.6 °F 81.1 °F 59.0 °F 48% 29.92 in - North 8.9 mph - N/A   Clear
10:00 PM 78.8 °F - 60.8 °F 54% 29.92 in - North 8.9 mph - N/A   Clear
11:00 PM 79 °F - 62 °F 45% 29.85 in 4 mi NW 2.2 mph - -   Mist
11:00 PM 77.0 °F - 60.8 °F 57% 29.92 in - NNE 6.7 mph - N/A   Clear